Location: Gro�wechsungen
(51.4926°N, 10.6901°E)
Time: 07:00:01
(UTC+00:00)

Cosmos 1782 Rocket - Pass Details

Date: 18 September 2020
Orbit: 607 x 632 km, 82.5° (Epoch: 19 October)

Event Time Altitude Azimuth Distance (km) Brightness Sun altitude
Rises 18:43:29 0° 201° (SSW) 2,886 7.0 -12.9°
Reaches altitude 10° 18:45:44 10° 205° (SSW) 1,989 6.2 -13.3°
Maximum altitude 18:50:04 56° 284° (WNW) 749 4.3 -13.9°
Drops below altitude 10° 18:54:29 10° 3° (N) 2,019 6.4 -14.6°
Sets 18:56:47 0° 8° (N) 2,934 7.2 -14.9°
